METEOSAT-11 (MSG-4) (40732 NORAD) Tracking and Keplerian Element Data

This shows tracking and keplerian element data for the satellite.

Feedback or suggestion? Click here.




ElementValue
Catalog40732
NameMETEOSAT-11 (MSG-4)
Epoch Orbit1384
Epoch Day113.3179263
Epoch Year2019
RAAN218.3112
Inclination0.8728
Eccentricity7.17E-05
Argument of Perigee150.9506
Mean Anonmoly316.0195
Mean Motion1.00275597
Decay Rate-1.8E-07
L11 40732U 15034A 19113.31792630 -.00000018 00000-0 00000+0 0 9994
L22 40732 0.8728 218.3112 0000717 150.9506 316.0195 1.00275597 13849

Live tracking and technical data element details for METEOSAT-11 (MSG-4) (NORAD 40732). METEOSAT-11 (MSG-4) can be tracked NOW for your location showing map with azimuth and elevation plus other details from your city location.

Track the satellite on the map from your city or location and see movement details for azimuth, elevation, latitude, longitude, range, height, and movement on the map or in text.







IsCatalogInMostPopularTable: catalog: 40732, numindb: 192
Update: records affected: 1



GetName: 40732 METEOSAT-11 (MSG-4)

Hit Count: updated at: Wed, 24 Apr 2019 17:50:59 GMT